CGTAX CYQB-CYBX

Flight info

Callsign CGTAX
Flight time 2h 30m
Altitude 23000
Route FLEUR DCT VODIX
Aircraft PC12/L-SDFGRWY/S

Departure

Time 2026-05-03 22:39
Airport Quebec Jean Lesage International Airport (CYQB)

Arrival

Time 2026-05-04 01:09
Airport Lourdes-de-Blanc-Sablon Airport (CYBX)
Time Latitude Longitude Altitude Speed Heading
2026-05-03 22:35 46.79116 -71.37673 240 ft 11 kts 224°
2026-05-03 22:35 46.79062 -71.37750 240 ft 10 kts 224°
2026-05-03 22:35 46.79009 -71.37824 240 ft 11 kts 223°
2026-05-03 22:35 46.78946 -71.37914 240 ft 14 kts 224°
2026-05-03 22:36 46.78920 -71.38050 240 ft 14 kts 255°
2026-05-03 22:36 46.78832 -71.38100 240 ft 16 kts 189°
2026-05-03 22:36 46.78780 -71.38112 240 ft 0 kts 188°
2026-05-03 22:37 46.78753 -71.38117 239 ft 8 kts 184°
2026-05-03 22:37 46.78710 -71.38175 238 ft 7 kts 283°
2026-05-03 22:37 46.78711 -71.38182 238 ft 0 kts 281°
2026-05-03 22:38 46.78724 -71.38325 239 ft 34 kts 278°
2026-05-03 22:38 46.78776 -71.38872 238 ft 73 kts 277°
2026-05-03 22:38 46.78849 -71.39710 283 ft 88 kts 279°
2026-05-03 22:39 46.78933 -71.40584 449 ft 87 kts 279°
2026-05-03 22:39 46.79019 -71.41473 641 ft 88 kts 282°
2026-05-03 22:39 46.79334 -71.42215 853 ft 92 kts 331°
2026-05-03 22:39 46.80017 -71.42319 962 ft 114 kts 15°
2026-05-03 22:40 46.80652 -71.41575 1221 ft 125 kts 63°
2026-05-03 22:40 46.80831 -71.40316 1544 ft 130 kts 86°
2026-05-03 22:40 46.80869 -71.38960 1868 ft 135 kts 85°
2026-05-03 22:40 46.81086 -71.37662 2303 ft 130 kts 64°
2026-05-03 22:41 46.81444 -71.36432 2631 ft 134 kts 65°
2026-05-03 22:41 46.81770 -71.35114 2920 ft 143 kts 71°
2026-05-03 22:41 46.82038 -71.33677 3223 ft 151 kts 73°
2026-05-03 22:41 46.82285 -71.32157 3582 ft 154 kts 73°
2026-05-03 22:42 46.82577 -71.30631 3933 ft 159 kts 69°
2026-05-03 22:42 46.82906 -71.29047 4275 ft 164 kts 71°
2026-05-03 22:42 46.83214 -71.27443 4641 ft 165 kts 70°
2026-05-03 22:42 46.83528 -71.25823 5019 ft 166 kts 70°
2026-05-03 22:43 46.83847 -71.24197 5385 ft 167 kts 70°
2026-05-03 22:43 46.84167 -71.22566 5760 ft 168 kts 70°
2026-05-03 22:43 46.84488 -71.20925 6134 ft 168 kts 69°
2026-05-03 22:43 46.84811 -71.19282 6495 ft 169 kts 69°
2026-05-03 22:44 46.85134 -71.17627 6883 ft 170 kts 69°
2026-05-03 22:44 46.85459 -71.15960 7250 ft 171 kts 70°
2026-05-03 22:44 46.85785 -71.14288 7604 ft 172 kts 69°
2026-05-03 22:44 46.86116 -71.12605 7972 ft 174 kts 69°
2026-05-03 22:45 46.86448 -71.10899 8341 ft 174 kts 70°
2026-05-03 22:45 46.86778 -71.09187 8639 ft 176 kts 70°
2026-05-03 22:45 46.87110 -71.07472 8907 ft 176 kts 70°
2026-05-03 22:45 46.87447 -71.05752 9178 ft 176 kts 69°
2026-05-03 22:46 46.87785 -71.04024 9450 ft 177 kts 70°
2026-05-03 22:46 46.88122 -71.02287 9698 ft 179 kts 70°
2026-05-03 22:46 46.88456 -71.00565 9964 ft 179 kts 70°
2026-05-03 22:46 46.88794 -70.98809 10232 ft 179 kts 71°
2026-05-03 22:47 46.89137 -70.97051 10512 ft 180 kts 71°
2026-05-03 22:47 46.89479 -70.95287 10797 ft 180 kts 71°
2026-05-03 22:47 46.89821 -70.93510 11078 ft 182 kts 71°
2026-05-03 22:47 46.90165 -70.91731 11370 ft 182 kts 71°
2026-05-03 22:48 46.90511 -70.89939 11665 ft 183 kts 72°
2026-05-03 22:48 46.90857 -70.88145 11959 ft 184 kts 72°
2026-05-03 22:48 46.91205 -70.86336 12264 ft 185 kts 72°
2026-05-03 22:48 46.91553 -70.84523 12557 ft 186 kts 72°
2026-05-03 22:49 46.91904 -70.82699 12861 ft 186 kts 73°
2026-05-03 22:49 46.92257 -70.80864 13161 ft 188 kts 73°
2026-05-03 22:49 46.92611 -70.79015 13510 ft 189 kts 73°
2026-05-03 22:49 46.92967 -70.77162 13860 ft 190 kts 73°
2026-05-03 22:50 46.93320 -70.75319 14191 ft 191 kts 74°
2026-05-03 22:50 46.93680 -70.73440 14517 ft 192 kts 74°
2026-05-03 22:50 46.94042 -70.71546 14842 ft 194 kts 74°
2026-05-03 22:50 46.94405 -70.69638 15172 ft 195 kts 75°
2026-05-03 22:51 46.94770 -70.67722 15499 ft 196 kts 75°
2026-05-03 22:51 46.95138 -70.65791 15818 ft 198 kts 75°
2026-05-03 22:51 46.95509 -70.63841 16128 ft 199 kts 75°
2026-05-03 22:51 46.95881 -70.61885 16443 ft 200 kts 75°
2026-05-03 22:52 46.96255 -70.59916 16743 ft 202 kts 76°
2026-05-03 22:52 46.96631 -70.57935 17050 ft 202 kts 76°
2026-05-03 22:52 46.97008 -70.55944 17353 ft 204 kts 76°
2026-05-03 22:52 46.97388 -70.53940 17643 ft 204 kts 76°
2026-05-03 22:53 46.97768 -70.51931 17933 ft 205 kts 77°
2026-05-03 22:53 46.98145 -70.49934 18210 ft 207 kts 77°
2026-05-03 22:53 46.98529 -70.47897 18500 ft 208 kts 77°
2026-05-03 22:53 46.99010 -70.45894 18756 ft 211 kts 61°
2026-05-03 22:54 46.99828 -70.44095 18987 ft 213 kts 57°
2026-05-03 22:54 47.00674 -70.42303 19266 ft 214 kts 58°
2026-05-03 22:54 47.01511 -70.40490 19536 ft 215 kts 58°
2026-05-03 22:54 47.02348 -70.38663 19785 ft 217 kts 58°
2026-05-03 22:55 47.03194 -70.36823 20048 ft 218 kts 58°
2026-05-03 22:55 47.04043 -70.34976 20284 ft 219 kts 59°
2026-05-03 22:55 47.04898 -70.33114 20520 ft 221 kts 59°
2026-05-03 22:55 47.05758 -70.31241 20749 ft 222 kts 59°
2026-05-03 22:56 47.06621 -70.29357 20980 ft 223 kts 59°
2026-05-03 22:56 47.07481 -70.27483 21222 ft 224 kts 59°
2026-05-03 22:56 47.08365 -70.25554 21452 ft 225 kts 60°
2026-05-03 22:56 47.09229 -70.23666 21671 ft 226 kts 60°
2026-05-03 22:57 47.10110 -70.21740 21898 ft 228 kts 60°
2026-05-03 22:57 47.10995 -70.19802 22115 ft 229 kts 60°
2026-05-03 22:57 47.11886 -70.17852 22334 ft 230 kts 60°
2026-05-03 22:57 47.12782 -70.15891 22548 ft 232 kts 60°
2026-05-03 22:58 47.13681 -70.13920 22742 ft 234 kts 60°
2026-05-03 22:58 47.14603 -70.11890 22756 ft 245 kts 60°
2026-05-03 22:58 47.15569 -70.09766 22761 ft 254 kts 60°
2026-05-03 22:58 47.16562 -70.07586 22764 ft 260 kts 60°
2026-05-03 22:59 47.17578 -70.05353 22766 ft 265 kts 60°
2026-05-03 22:59 47.18611 -70.03080 22768 ft 269 kts 60°
2026-05-03 22:59 47.19657 -70.00777 22764 ft 273 kts 60°
2026-05-03 22:59 47.20715 -69.98443 22752 ft 276 kts 61°
2026-05-03 23:00 47.21783 -69.96087 22754 ft 277 kts 61°
2026-05-03 23:00 47.22843 -69.93747 22754 ft 279 kts 61°
2026-05-03 23:00 47.23934 -69.91336 22756 ft 280 kts 61°
2026-05-03 23:00 47.25014 -69.88947 22756 ft 281 kts 61°
2026-05-03 23:01 47.26096 -69.86552 22752 ft 281 kts 61°
2026-05-03 23:01 47.27178 -69.84154 22751 ft 281 kts 61°
2026-05-03 23:01 47.28264 -69.81746 22753 ft 282 kts 61°
2026-05-03 23:01 47.29349 -69.79337 22748 ft 283 kts 61°
2026-05-03 23:02 47.30423 -69.76953 22748 ft 283 kts 61°
2026-05-03 23:02 47.31510 -69.74536 22749 ft 283 kts 61°
2026-05-03 23:02 47.32596 -69.72118 22751 ft 283 kts 61°
2026-05-03 23:02 47.33686 -69.69691 22753 ft 284 kts 61°
2026-05-03 23:03 47.34776 -69.67261 22754 ft 284 kts 61°
2026-05-03 23:03 47.35865 -69.64831 22755 ft 284 kts 61°
2026-05-03 23:03 47.36955 -69.62397 22753 ft 284 kts 61°
2026-05-03 23:03 47.38044 -69.59964 22753 ft 284 kts 61°
2026-05-03 23:04 47.39131 -69.57531 22754 ft 284 kts 61°
2026-05-03 23:04 47.40219 -69.55094 22748 ft 285 kts 61°
2026-05-03 23:04 47.41309 -69.52648 22750 ft 285 kts 61°
2026-05-03 23:04 47.42401 -69.50199 22727 ft 286 kts 61°
2026-05-03 23:05 47.43496 -69.47743 22725 ft 285 kts 61°
2026-05-03 23:05 47.44586 -69.45296 22726 ft 285 kts 61°
2026-05-03 23:05 47.45676 -69.42844 22727 ft 285 kts 62°
2026-05-03 23:05 47.46762 -69.40397 22726 ft 285 kts 62°
2026-05-03 23:06 47.47846 -69.37955 22726 ft 284 kts 62°
2026-05-03 23:06 47.48929 -69.35512 22726 ft 284 kts 61°
2026-05-03 23:06 47.49998 -69.33099 22726 ft 283 kts 62°
2026-05-03 23:06 47.51076 -69.30662 22727 ft 283 kts 62°
2026-05-03 23:07 47.52157 -69.28221 22726 ft 283 kts 62°
2026-05-03 23:07 47.53235 -69.25779 22719 ft 283 kts 62°
2026-05-03 23:07 47.54301 -69.23329 22716 ft 281 kts 64°
2026-05-03 23:07 47.55286 -69.20836 22716 ft 281 kts 63°
2026-05-03 23:08 47.56312 -69.18373 22715 ft 280 kts 63°
2026-05-03 23:08 47.57324 -69.15909 22717 ft 280 kts 64°
2026-05-03 23:08 47.58318 -69.13433 22716 ft 280 kts 64°
2026-05-03 23:08 47.59312 -69.10955 22717 ft 280 kts 64°
2026-05-03 23:09 47.60310 -69.08478 22716 ft 280 kts 64°
2026-05-03 23:09 47.61310 -69.06007 22716 ft 279 kts 64°
2026-05-03 23:09 47.62305 -69.03536 22716 ft 279 kts 64°
2026-05-03 23:09 47.63298 -69.01065 22716 ft 279 kts 64°
2026-05-03 23:10 47.64289 -68.98596 22716 ft 279 kts 64°
2026-05-03 23:10 47.65281 -68.96128 22716 ft 278 kts 64°
2026-05-03 23:10 47.66270 -68.93662 22716 ft 278 kts 64°
2026-05-03 23:10 47.67258 -68.91197 22716 ft 278 kts 64°
2026-05-03 23:11 47.68231 -68.88767 22716 ft 277 kts 64°
2026-05-03 23:11 47.69216 -68.86306 22716 ft 277 kts 64°
2026-05-03 23:11 47.70198 -68.83849 22716 ft 277 kts 64°
2026-05-03 23:11 47.71180 -68.81387 22715 ft 276 kts 64°
2026-05-03 23:12 47.72159 -68.78934 22717 ft 276 kts 64°
2026-05-03 23:12 47.73139 -68.76475 22716 ft 276 kts 64°
2026-05-03 23:12 47.74117 -68.74020 22716 ft 276 kts 64°
2026-05-03 23:12 47.75093 -68.71568 22716 ft 276 kts 64°
2026-05-03 23:13 47.76067 -68.69117 22716 ft 275 kts 64°
2026-05-03 23:13 47.77040 -68.66667 22716 ft 275 kts 64°
2026-05-03 23:13 47.78011 -68.64219 22716 ft 275 kts 64°
2026-05-03 23:13 47.78980 -68.61775 22717 ft 274 kts 64°
2026-05-03 23:14 47.79949 -68.59328 22716 ft 274 kts 64°
2026-05-03 23:14 47.80915 -68.56885 22717 ft 274 kts 64°
2026-05-03 23:14 47.81882 -68.54440 22716 ft 274 kts 64°
2026-05-03 23:14 47.82848 -68.51995 22716 ft 274 kts 64°
2026-05-03 23:15 47.83485 -68.50379 22716 ft 274 kts 64°
2026-05-03 23:15 47.84449 -68.47935 22716 ft 274 kts 64°
2026-05-03 23:15 47.85412 -68.45493 22716 ft 273 kts 64°
2026-05-03 23:15 47.86372 -68.43052 22716 ft 273 kts 64°
2026-05-03 23:16 47.87333 -68.40608 22716 ft 273 kts 64°
2026-05-03 23:16 47.88294 -68.38164 22715 ft 273 kts 64°
2026-05-03 23:16 47.89251 -68.35727 22715 ft 273 kts 64°
2026-05-03 23:16 47.90208 -68.33287 22716 ft 272 kts 64°
2026-05-03 23:17 47.91161 -68.30853 22716 ft 272 kts 64°
2026-05-03 23:17 47.92116 -68.28413 22715 ft 272 kts 64°
2026-05-03 23:17 47.93070 -68.25976 22715 ft 272 kts 64°
2026-05-03 23:17 47.94026 -68.23532 22715 ft 272 kts 64°
2026-05-03 23:18 47.94976 -68.21099 22716 ft 272 kts 64°
2026-05-03 23:18 47.95926 -68.18661 22716 ft 272 kts 64°
2026-05-03 23:18 47.96875 -68.16226 22716 ft 272 kts 64°
2026-05-03 23:18 47.97825 -68.13791 22716 ft 271 kts 64°
2026-05-03 23:19 47.98758 -68.11392 22716 ft 271 kts 65°
2026-05-03 23:19 47.99704 -68.08955 22716 ft 271 kts 65°
2026-05-03 23:19 48.00650 -68.06518 22715 ft 272 kts 65°
2026-05-03 23:19 48.01598 -68.04074 22716 ft 271 kts 65°
2026-05-03 23:20 48.02543 -68.01636 22715 ft 271 kts 65°
2026-05-03 23:20 48.03487 -67.99199 22716 ft 271 kts 65°
2026-05-03 23:20 48.04431 -67.96759 22715 ft 271 kts 65°
2026-05-03 23:20 48.05376 -67.94315 22716 ft 271 kts 65°
2026-05-03 23:21 48.06319 -67.91874 22717 ft 271 kts 65°
2026-05-03 23:21 48.07263 -67.89428 22723 ft 271 kts 65°
2026-05-03 23:21 48.08205 -67.86984 22722 ft 271 kts 65°
2026-05-03 23:21 48.09143 -67.84547 22722 ft 271 kts 65°
2026-05-03 23:22 48.11022 -67.79662 22722 ft 271 kts 65°
2026-05-03 23:22 48.11962 -67.77215 22724 ft 271 kts 65°
2026-05-03 23:22 48.12889 -67.74799 22724 ft 271 kts 65°
2026-05-03 23:23 48.13829 -67.72346 22724 ft 272 kts 65°
2026-05-03 23:23 48.14768 -67.69895 22724 ft 272 kts 65°
2026-05-03 23:23 48.15708 -67.67440 22723 ft 272 kts 65°
2026-05-03 23:23 48.16649 -67.64977 22723 ft 272 kts 65°
2026-05-03 23:24 48.17587 -67.62521 22722 ft 272 kts 65°
2026-05-03 23:24 48.18525 -67.60063 22723 ft 272 kts 65°
2026-05-03 23:24 48.19465 -67.57601 22724 ft 272 kts 65°
2026-05-03 23:24 48.20403 -67.55139 22723 ft 272 kts 65°
2026-05-03 23:25 48.21342 -67.52670 22723 ft 273 kts 65°
2026-05-03 23:25 48.22280 -67.50201 22722 ft 272 kts 65°
2026-05-03 23:25 48.23218 -67.47732 22723 ft 272 kts 65°
2026-05-03 23:25 48.24156 -67.45261 22722 ft 273 kts 66°
2026-05-03 23:26 48.25094 -67.42787 22723 ft 273 kts 66°
2026-05-03 23:26 48.26032 -67.40310 22723 ft 273 kts 66°
2026-05-03 23:26 48.26972 -67.37826 22724 ft 274 kts 66°
2026-05-03 23:26 48.27911 -67.35341 22724 ft 274 kts 66°
2026-05-03 23:27 48.28841 -67.32880 22723 ft 274 kts 66°
2026-05-03 23:27 48.29782 -67.30389 22723 ft 274 kts 66°
2026-05-03 23:27 48.30721 -67.27897 22724 ft 274 kts 66°
2026-05-03 23:27 48.31663 -67.25397 22724 ft 275 kts 66°
2026-05-03 23:28 48.32604 -67.22897 22723 ft 275 kts 67°
2026-05-03 23:28 48.33546 -67.20390 22723 ft 275 kts 67°
2026-05-03 23:28 48.34486 -67.17886 22723 ft 275 kts 67°
2026-05-03 23:28 48.35426 -67.15381 22723 ft 275 kts 67°
2026-05-03 23:29 48.36368 -67.12870 22722 ft 275 kts 67°
2026-05-03 23:29 48.37306 -67.10365 22723 ft 275 kts 67°
2026-05-03 23:29 48.38247 -67.07851 22723 ft 275 kts 67°
2026-05-03 23:29 48.39187 -67.05334 22724 ft 276 kts 67°
2026-05-03 23:30 48.40127 -67.02818 22724 ft 276 kts 67°
2026-05-03 23:30 48.41067 -67.00298 22724 ft 276 kts 68°
2026-05-03 23:30 48.42009 -66.97773 22724 ft 277 kts 68°
2026-05-03 23:30 48.42941 -66.95273 22725 ft 277 kts 68°
2026-05-03 23:31 48.43881 -66.92744 22723 ft 277 kts 68°
2026-05-03 23:31 48.44820 -66.90216 22723 ft 276 kts 68°
2026-05-03 23:31 48.45758 -66.87689 22723 ft 276 kts 68°
2026-05-03 23:31 48.46696 -66.85161 22724 ft 277 kts 68°
2026-05-03 23:32 48.47635 -66.82630 22723 ft 277 kts 68°
2026-05-03 23:32 48.48574 -66.80093 22723 ft 277 kts 68°
2026-05-03 23:32 48.49513 -66.77555 22723 ft 277 kts 68°
2026-05-03 23:32 48.50453 -66.75011 22723 ft 277 kts 68°
2026-05-03 23:33 48.51392 -66.72466 22724 ft 277 kts 68°
2026-05-03 23:33 48.52329 -66.69928 22725 ft 277 kts 68°
2026-05-03 23:33 48.53265 -66.67387 22725 ft 277 kts 68°
2026-05-03 23:33 48.54201 -66.64844 22723 ft 277 kts 69°
2026-05-03 23:34 48.55125 -66.62334 22732 ft 277 kts 69°
2026-05-03 23:34 48.56059 -66.59790 22733 ft 277 kts 69°
2026-05-03 23:34 48.56994 -66.57242 22733 ft 277 kts 69°
2026-05-03 23:34 48.57929 -66.54692 22733 ft 278 kts 69°
2026-05-03 23:35 48.58863 -66.52142 22732 ft 278 kts 69°
2026-05-03 23:35 48.59800 -66.49582 22732 ft 278 kts 69°
2026-05-03 23:35 48.60738 -66.47016 22733 ft 278 kts 69°
2026-05-03 23:35 48.61672 -66.44460 22733 ft 278 kts 69°
2026-05-03 23:36 48.62605 -66.41904 22744 ft 277 kts 69°
2026-05-03 23:36 48.63536 -66.39353 22741 ft 277 kts 69°
2026-05-03 23:36 48.64466 -66.36795 22742 ft 277 kts 69°
2026-05-03 23:36 48.65382 -66.34278 22742 ft 277 kts 69°
2026-05-03 23:37 48.66309 -66.31730 22742 ft 276 kts 69°
2026-05-03 23:37 48.67234 -66.29181 22742 ft 276 kts 69°
2026-05-03 23:37 48.68159 -66.26631 22743 ft 277 kts 69°
2026-05-03 23:37 48.69078 -66.24071 22740 ft 276 kts 70°
2026-05-03 23:38 48.69966 -66.21499 22743 ft 276 kts 70°
2026-05-03 23:38 48.70881 -66.18937 22739 ft 277 kts 69°
2026-05-03 23:38 48.71815 -66.16384 22741 ft 277 kts 69°
2026-05-03 23:38 48.72747 -66.13820 22741 ft 277 kts 69°
2026-05-03 23:39 48.73670 -66.11253 22739 ft 277 kts 69°
2026-05-03 23:39 48.74594 -66.08683 22742 ft 277 kts 69°
2026-05-03 23:39 48.75517 -66.06120 22738 ft 277 kts 69°
2026-05-03 23:39 48.76439 -66.03562 22745 ft 276 kts 69°
2026-05-03 23:40 48.77358 -66.01003 22744 ft 276 kts 69°
2026-05-03 23:40 48.78277 -65.98439 22753 ft 277 kts 70°
2026-05-03 23:40 48.79185 -65.95902 22744 ft 278 kts 70°
2026-05-03 23:40 48.80108 -65.93327 22746 ft 278 kts 70°
2026-05-03 23:41 48.81031 -65.90750 22751 ft 278 kts 70°
2026-05-03 23:41 48.81954 -65.88170 22751 ft 278 kts 70°
2026-05-03 23:41 48.82875 -65.85591 22752 ft 278 kts 70°
2026-05-03 23:41 48.83797 -65.83007 22748 ft 278 kts 70°
2026-05-03 23:42 48.84720 -65.80417 22751 ft 278 kts 70°
2026-05-03 23:42 48.85641 -65.77830 22752 ft 279 kts 70°
2026-05-03 23:42 48.86564 -65.75237 22749 ft 279 kts 70°
2026-05-03 23:42 48.87485 -65.72646 22752 ft 279 kts 70°
2026-05-03 23:43 48.88407 -65.70047 22752 ft 279 kts 70°
2026-05-03 23:43 48.89330 -65.67446 22752 ft 280 kts 70°
2026-05-03 23:43 48.90254 -65.64841 22752 ft 279 kts 70°
2026-05-03 23:43 48.91177 -65.62235 22749 ft 279 kts 70°
2026-05-03 23:44 48.92096 -65.59635 22750 ft 280 kts 70°
2026-05-03 23:44 48.93014 -65.57037 22761 ft 278 kts 70°
2026-05-03 23:44 48.93928 -65.54445 22759 ft 279 kts 70°
2026-05-03 23:44 48.94845 -65.51843 22759 ft 279 kts 70°
2026-05-03 23:45 48.95760 -65.49247 22765 ft 278 kts 70°
2026-05-03 23:45 48.96672 -65.46651 22758 ft 278 kts 70°
2026-05-03 23:45 48.97587 -65.44045 22763 ft 279 kts 70°
2026-05-03 23:45 48.98493 -65.41467 22759 ft 280 kts 70°
2026-05-03 23:46 48.99410 -65.38857 22761 ft 280 kts 70°
2026-05-03 23:46 49.00326 -65.36239 22761 ft 280 kts 70°
2026-05-03 23:46 49.01244 -65.33617 22760 ft 280 kts 70°
2026-05-03 23:46 49.02162 -65.30995 22762 ft 281 kts 70°
2026-05-03 23:47 49.03080 -65.28364 22760 ft 281 kts 70°
2026-05-03 23:47 49.03999 -65.25730 22765 ft 282 kts 70°
2026-05-03 23:47 49.04920 -65.23091 22759 ft 281 kts 70°
2026-05-03 23:47 49.05838 -65.20455 22761 ft 281 kts 70°
2026-05-03 23:48 49.06754 -65.17823 22764 ft 281 kts 70°
2026-05-03 23:48 49.07672 -65.15182 22761 ft 282 kts 70°
2026-05-03 23:48 49.08588 -65.12543 22762 ft 282 kts 70°
2026-05-03 23:48 49.09507 -65.09894 22764 ft 282 kts 71°
2026-05-03 23:49 49.10427 -65.07243 22766 ft 282 kts 71°
2026-05-03 23:49 49.11345 -65.04587 22761 ft 283 kts 71°
2026-05-03 23:49 49.12251 -65.01970 22762 ft 282 kts 71°
2026-05-03 23:49 49.13178 -64.99287 22763 ft 282 kts 71°
2026-05-03 23:50 49.14081 -64.96666 22763 ft 282 kts 71°
2026-05-03 23:50 49.14702 -64.94869 22761 ft 282 kts 71°
2026-05-03 23:50 49.15915 -64.91348 22764 ft 282 kts 71°
2026-05-03 23:50 49.16828 -64.88692 22764 ft 283 kts 71°
2026-05-03 23:51 49.17742 -64.86031 22762 ft 282 kts 71°
2026-05-03 23:51 49.18655 -64.83372 22761 ft 282 kts 71°
2026-05-03 23:51 49.19567 -64.80713 22762 ft 282 kts 71°
2026-05-03 23:51 49.20479 -64.78051 22761 ft 282 kts 71°
2026-05-03 23:52 49.21390 -64.75390 22763 ft 282 kts 71°
2026-05-03 23:52 49.22298 -64.72734 22761 ft 282 kts 71°
2026-05-03 23:52 49.23207 -64.70074 22761 ft 282 kts 71°
2026-05-03 23:52 49.24103 -64.67449 22761 ft 281 kts 71°
2026-05-03 23:53 49.25009 -64.64790 22761 ft 282 kts 71°
2026-05-03 23:53 49.25914 -64.62129 22762 ft 282 kts 71°
2026-05-03 23:53 49.26821 -64.59463 22762 ft 282 kts 71°
2026-05-03 23:53 49.27729 -64.56793 22762 ft 283 kts 71°
2026-05-03 23:54 49.28636 -64.54119 22761 ft 283 kts 71°
2026-05-03 23:54 49.29544 -64.51440 22761 ft 283 kts 72°
2026-05-03 23:54 49.30450 -64.48766 22762 ft 283 kts 72°
2026-05-03 23:54 49.31356 -64.46091 22762 ft 283 kts 72°
2026-05-03 23:55 49.32262 -64.43410 22761 ft 283 kts 72°
2026-05-03 23:55 49.33154 -64.40766 22761 ft 283 kts 72°
2026-05-03 23:55 49.34060 -64.38081 22761 ft 283 kts 72°
2026-05-03 23:55 49.34963 -64.35402 22763 ft 283 kts 72°
2026-05-03 23:56 49.35866 -64.32718 22761 ft 283 kts 72°
2026-05-03 23:56 49.36770 -64.30028 22761 ft 283 kts 72°
2026-05-03 23:56 49.37672 -64.27345 22766 ft 283 kts 72°
2026-05-03 23:56 49.38575 -64.24653 22764 ft 283 kts 72°
2026-05-03 23:57 49.39475 -64.21969 22761 ft 283 kts 72°
2026-05-03 23:57 49.40376 -64.19279 22764 ft 283 kts 72°
2026-05-03 23:57 49.41275 -64.16587 22762 ft 283 kts 72°
2026-05-03 23:57 49.42174 -64.13899 22764 ft 283 kts 72°
2026-05-03 23:58 49.43074 -64.11201 22764 ft 283 kts 72°
2026-05-03 23:58 49.43972 -64.08507 22762 ft 283 kts 72°
2026-05-03 23:58 49.44871 -64.05809 22765 ft 283 kts 72°
2026-05-03 23:58 49.45756 -64.03150 22762 ft 283 kts 72°
2026-05-03 23:59 49.46650 -64.00459 22766 ft 283 kts 72°
2026-05-03 23:59 49.47545 -63.97762 22762 ft 283 kts 72°
2026-05-03 23:59 49.48440 -63.95064 22763 ft 283 kts 72°
2026-05-03 23:59 49.49333 -63.92367 22764 ft 283 kts 72°
2026-05-04 00:00 49.50224 -63.89673 22762 ft 283 kts 72°
2026-05-04 00:00 49.51116 -63.86977 22773 ft 283 kts 72°
2026-05-04 00:00 49.52007 -63.84279 22771 ft 283 kts 72°
2026-05-04 00:00 49.52897 -63.81581 22768 ft 283 kts 72°
2026-05-04 00:01 49.53789 -63.78874 22768 ft 283 kts 72°
2026-05-04 00:01 49.54682 -63.76161 22769 ft 283 kts 72°
2026-05-04 00:01 49.55572 -63.73456 22769 ft 283 kts 72°
2026-05-04 00:01 49.56461 -63.70746 22770 ft 283 kts 72°
2026-05-04 00:02 49.57339 -63.68070 22772 ft 283 kts 72°
2026-05-04 00:02 49.58229 -63.65356 22772 ft 284 kts 72°
2026-05-04 00:02 49.59119 -63.62637 22772 ft 284 kts 72°
2026-05-04 00:02 49.60010 -63.59913 22771 ft 284 kts 72°
2026-05-04 00:03 49.60901 -63.57190 22779 ft 284 kts 72°
2026-05-04 00:03 49.61501 -63.55349 22779 ft 284 kts 72°
2026-05-04 00:03 49.62375 -63.52667 22779 ft 284 kts 72°
2026-05-04 00:03 49.63265 -63.49935 22779 ft 285 kts 72°
2026-05-04 00:04 49.64153 -63.47206 22778 ft 284 kts 72°
2026-05-04 00:04 49.65039 -63.44480 22779 ft 284 kts 72°
2026-05-04 00:04 49.65927 -63.41745 22778 ft 284 kts 73°
2026-05-04 00:04 49.66812 -63.39016 22778 ft 284 kts 73°
2026-05-04 00:05 49.67696 -63.36288 22778 ft 284 kts 73°
2026-05-04 00:05 49.68580 -63.33556 22778 ft 284 kts 73°
2026-05-04 00:05 49.69463 -63.30823 22779 ft 284 kts 73°
2026-05-04 00:05 49.70348 -63.28086 22778 ft 284 kts 73°
2026-05-04 00:06 49.71229 -63.25351 22778 ft 284 kts 73°
2026-05-04 00:06 49.72109 -63.22623 22778 ft 284 kts 73°
2026-05-04 00:06 49.72976 -63.19928 22779 ft 284 kts 73°
2026-05-04 00:06 49.73854 -63.17198 22778 ft 284 kts 73°
2026-05-04 00:07 49.74732 -63.14463 22778 ft 284 kts 73°
2026-05-04 00:07 49.75610 -63.11728 22778 ft 284 kts 73°
2026-05-04 00:07 49.76487 -63.08990 22778 ft 284 kts 73°
2026-05-04 00:07 49.77363 -63.06255 22778 ft 284 kts 73°
2026-05-04 00:08 49.78239 -63.03516 22778 ft 284 kts 73°
2026-05-04 00:08 49.79115 -63.00774 22778 ft 284 kts 73°
2026-05-04 00:08 49.79985 -62.98046 22777 ft 281 kts 73°
2026-05-04 00:08 49.80848 -62.95342 22776 ft 278 kts 73°
2026-05-04 00:09 49.81700 -62.92665 22776 ft 276 kts 73°
2026-05-04 00:09 49.82545 -62.90006 22777 ft 274 kts 73°
2026-05-04 00:09 49.83386 -62.87357 22776 ft 273 kts 73°
2026-05-04 00:09 49.84225 -62.84713 22776 ft 273 kts 73°
2026-05-04 00:10 49.85050 -62.82112 22776 ft 272 kts 73°
2026-05-04 00:10 49.85884 -62.79477 22776 ft 272 kts 73°
2026-05-04 00:10 49.86715 -62.76850 22776 ft 271 kts 73°
2026-05-04 00:10 49.87544 -62.74225 22776 ft 271 kts 73°
2026-05-04 00:11 49.88371 -62.71607 22776 ft 270 kts 73°
2026-05-04 00:11 49.89196 -62.68990 22777 ft 270 kts 73°
2026-05-04 00:11 49.90023 -62.66365 22777 ft 270 kts 73°
2026-05-04 00:11 49.90846 -62.63749 22777 ft 270 kts 72°
2026-05-04 00:12 49.91670 -62.61131 22777 ft 270 kts 72°
2026-05-04 00:12 49.92491 -62.58511 22775 ft 270 kts 72°
2026-05-04 00:12 49.93314 -62.55890 22777 ft 270 kts 72°
2026-05-04 00:12 49.94135 -62.53274 22777 ft 269 kts 72°
2026-05-04 00:13 49.94953 -62.50657 22774 ft 270 kts 72°
2026-05-04 00:13 49.95771 -62.48038 22774 ft 270 kts 72°
2026-05-04 00:13 49.96592 -62.45411 22777 ft 270 kts 71°
2026-05-04 00:13 49.97402 -62.42820 22776 ft 270 kts 72°
2026-05-04 00:14 49.98220 -62.40192 22774 ft 270 kts 72°
2026-05-04 00:14 49.99039 -62.37560 22775 ft 271 kts 72°
2026-05-04 00:14 49.99859 -62.34926 22775 ft 271 kts 72°
2026-05-04 00:14 50.00678 -62.32288 22775 ft 271 kts 72°
2026-05-04 00:15 50.01501 -62.29640 22774 ft 271 kts 72°
2026-05-04 00:15 50.02321 -62.26994 22775 ft 271 kts 72°
2026-05-04 00:15 50.03139 -62.24350 22775 ft 272 kts 72°
2026-05-04 00:15 50.03958 -62.21702 22777 ft 272 kts 72°
2026-05-04 00:16 50.04776 -62.19056 22776 ft 272 kts 72°
2026-05-04 00:16 50.05596 -62.16401 22778 ft 272 kts 72°
2026-05-04 00:16 50.06404 -62.13779 22776 ft 272 kts 72°
2026-05-04 00:16 50.07222 -62.11126 22777 ft 272 kts 72°
2026-05-04 00:17 50.08042 -62.08458 22775 ft 272 kts 72°
2026-05-04 00:17 50.08860 -62.05799 22775 ft 272 kts 72°
2026-05-04 00:17 50.09678 -62.03134 22775 ft 272 kts 72°
2026-05-04 00:17 50.10495 -62.00471 22775 ft 272 kts 72°
2026-05-04 00:18 50.11310 -61.97812 22775 ft 272 kts 72°
2026-05-04 00:18 50.12126 -61.95144 22775 ft 272 kts 72°
2026-05-04 00:18 50.12939 -61.92485 22775 ft 272 kts 72°
2026-05-04 00:18 50.13751 -61.89824 22775 ft 272 kts 72°
2026-05-04 00:19 50.14564 -61.87160 22775 ft 272 kts 72°
2026-05-04 00:19 50.15376 -61.84494 22775 ft 272 kts 72°
2026-05-04 00:19 50.16187 -61.81829 22775 ft 272 kts 72°
2026-05-04 00:19 50.16992 -61.79159 22776 ft 271 kts 73°
2026-05-04 00:20 50.17739 -61.76470 22775 ft 270 kts 75°
2026-05-04 00:20 50.18493 -61.73775 22775 ft 271 kts 73°
2026-05-04 00:20 50.19261 -61.71137 22776 ft 271 kts 73°
2026-05-04 00:20 50.20043 -61.68466 22776 ft 271 kts 73°
2026-05-04 00:21 50.20817 -61.65784 22776 ft 270 kts 73°
2026-05-04 00:21 50.21586 -61.63107 22775 ft 271 kts 73°
2026-05-04 00:21 50.22360 -61.60422 22775 ft 271 kts 74°
2026-05-04 00:21 50.23132 -61.57743 22775 ft 270 kts 74°
2026-05-04 00:22 50.23902 -61.55065 22775 ft 271 kts 74°
2026-05-04 00:22 50.24671 -61.52383 22779 ft 271 kts 74°
2026-05-04 00:22 50.25442 -61.49698 22775 ft 271 kts 74°
2026-05-04 00:22 50.26211 -61.47015 22775 ft 270 kts 74°
2026-05-04 00:23 50.26978 -61.44331 22777 ft 271 kts 75°
2026-05-04 00:23 50.27746 -61.41646 22775 ft 271 kts 75°
2026-05-04 00:23 50.28514 -61.38959 22775 ft 271 kts 75°
2026-05-04 00:23 50.29281 -61.36269 22776 ft 271 kts 75°
2026-05-04 00:24 50.30046 -61.33583 22775 ft 270 kts 75°
2026-05-04 00:24 50.30810 -61.30898 22776 ft 270 kts 75°
2026-05-04 00:24 50.31575 -61.28209 22775 ft 270 kts 75°
2026-05-04 00:24 50.32337 -61.25523 22776 ft 270 kts 75°
2026-05-04 00:25 50.33100 -61.22831 22776 ft 270 kts 75°
2026-05-04 00:25 50.33864 -61.20137 22776 ft 270 kts 75°
2026-05-04 00:25 50.34626 -61.17444 22775 ft 271 kts 75°
2026-05-04 00:25 50.35388 -61.14748 22775 ft 271 kts 76°
2026-05-04 00:26 50.36149 -61.12054 22776 ft 271 kts 76°
2026-05-04 00:26 50.36911 -61.09352 22775 ft 271 kts 76°
2026-05-04 00:26 50.37660 -61.06692 22776 ft 271 kts 76°
2026-05-04 00:26 50.38420 -61.03992 22775 ft 270 kts 76°
2026-05-04 00:27 50.39177 -61.01298 22775 ft 270 kts 76°
2026-05-04 00:27 50.39933 -60.98603 22775 ft 270 kts 76°
2026-05-04 00:27 50.40689 -60.95907 22775 ft 270 kts 76°
2026-05-04 00:27 50.41445 -60.93209 22776 ft 270 kts 76°
2026-05-04 00:28 50.42200 -60.90511 22776 ft 270 kts 76°
2026-05-04 00:28 50.42954 -60.87811 22775 ft 270 kts 76°
2026-05-04 00:28 50.43709 -60.85107 22776 ft 270 kts 76°
2026-05-04 00:28 50.44464 -60.82403 22775 ft 270 kts 76°
2026-05-04 00:29 50.45216 -60.79700 22775 ft 270 kts 77°
2026-05-04 00:29 50.45970 -60.76989 22776 ft 271 kts 77°
2026-05-04 00:29 50.46723 -60.74281 22775 ft 271 kts 77°
2026-05-04 00:29 50.47475 -60.71572 22775 ft 271 kts 77°
2026-05-04 00:30 50.48227 -60.68858 22776 ft 271 kts 77°
2026-05-04 00:30 50.48968 -60.66184 22775 ft 271 kts 77°
2026-05-04 00:30 50.49719 -60.63469 22775 ft 271 kts 77°
2026-05-04 00:30 50.50468 -60.60755 22773 ft 271 kts 77°
2026-05-04 00:31 50.51220 -60.58031 22775 ft 270 kts 77°
2026-05-04 00:31 50.51968 -60.55317 22775 ft 270 kts 77°
2026-05-04 00:31 50.52715 -60.52603 22775 ft 270 kts 77°
2026-05-04 00:31 50.53462 -60.49887 22775 ft 271 kts 77°
2026-05-04 00:32 50.54209 -60.47166 22774 ft 271 kts 77°
2026-05-04 00:32 50.54945 -60.44483 22775 ft 271 kts 77°
2026-05-04 00:32 50.55691 -60.41759 22777 ft 271 kts 77°
2026-05-04 00:32 50.56447 -60.39002 22775 ft 271 kts 77°
2026-05-04 00:33 50.57182 -60.36315 22777 ft 271 kts 77°
2026-05-04 00:33 50.58665 -60.30873 22776 ft 271 kts 77°
2026-05-04 00:33 50.59408 -60.28153 22777 ft 271 kts 77°
2026-05-04 00:34 50.60151 -60.25416 22775 ft 271 kts 77°
2026-05-04 00:34 50.60894 -60.22682 22779 ft 271 kts 77°
2026-05-04 00:34 50.61635 -60.19949 22779 ft 272 kts 77°
2026-05-04 00:34 50.62381 -60.17198 22779 ft 273 kts 77°
2026-05-04 00:35 50.63125 -60.14455 22779 ft 272 kts 77°
2026-05-04 00:35 50.63868 -60.11711 22780 ft 272 kts 77°
2026-05-04 00:35 50.64610 -60.08965 22778 ft 272 kts 78°
2026-05-04 00:35 50.65341 -60.06253 22779 ft 272 kts 78°
2026-05-04 00:36 50.66080 -60.03514 22780 ft 271 kts 78°
2026-05-04 00:36 50.66816 -60.00780 22779 ft 271 kts 78°
2026-05-04 00:36 50.67553 -59.98042 22779 ft 271 kts 78°
2026-05-04 00:36 50.68287 -59.95308 22778 ft 271 kts 78°
2026-05-04 00:37 50.69021 -59.92572 22778 ft 271 kts 78°
2026-05-04 00:37 50.69754 -59.89836 22779 ft 271 kts 78°
2026-05-04 00:37 50.70488 -59.87094 22778 ft 271 kts 78°
2026-05-04 00:37 50.71220 -59.84355 22780 ft 271 kts 78°
2026-05-04 00:38 50.71953 -59.81608 22779 ft 271 kts 78°
2026-05-04 00:38 50.72684 -59.78866 22779 ft 271 kts 78°
2026-05-04 00:38 50.73416 -59.76117 22782 ft 272 kts 78°
2026-05-04 00:38 50.74148 -59.73365 22781 ft 271 kts 78°
2026-05-04 00:39 50.74880 -59.70619 22780 ft 271 kts 78°
2026-05-04 00:39 50.75600 -59.67905 22780 ft 271 kts 78°
2026-05-04 00:39 50.76327 -59.65160 22789 ft 271 kts 78°
2026-05-04 00:39 50.77055 -59.62407 22692 ft 274 kts 78°
2026-05-04 00:40 50.77793 -59.59596 22442 ft 279 kts 78°
2026-05-04 00:40 50.78547 -59.56744 22194 ft 282 kts 77°
2026-05-04 00:40 50.79308 -59.53871 21946 ft 284 kts 77°
2026-05-04 00:40 50.80069 -59.50990 21696 ft 284 kts 77°
2026-05-04 00:41 50.80830 -59.48101 21446 ft 283 kts 78°
2026-05-04 00:41 50.81583 -59.45231 21195 ft 283 kts 78°
2026-05-04 00:41 50.82335 -59.42365 20949 ft 281 kts 78°
2026-05-04 00:41 50.83074 -59.39550 20698 ft 279 kts 78°
2026-05-04 00:42 50.83816 -59.36718 20448 ft 278 kts 78°
2026-05-04 00:42 50.84551 -59.33900 20199 ft 277 kts 78°
2026-05-04 00:42 50.85284 -59.31096 19948 ft 275 kts 78°
2026-05-04 00:42 50.86012 -59.28306 19698 ft 273 kts 78°
2026-05-04 00:43 50.86735 -59.25526 19449 ft 272 kts 78°
2026-05-04 00:43 50.87454 -59.22760 19197 ft 271 kts 78°
2026-05-04 00:43 50.88172 -59.20007 18947 ft 270 kts 78°
2026-05-04 00:43 50.88884 -59.17265 18692 ft 268 kts 79°
2026-05-04 00:44 50.89587 -59.14553 18447 ft 265 kts 79°
2026-05-04 00:44 50.90281 -59.11870 18204 ft 263 kts 79°
2026-05-04 00:44 50.90971 -59.09205 17947 ft 260 kts 79°
2026-05-04 00:44 50.91657 -59.06560 17693 ft 259 kts 79°
2026-05-04 00:45 50.92335 -59.03928 17444 ft 258 kts 79°
2026-05-04 00:45 50.93010 -59.01302 17193 ft 257 kts 78°
2026-05-04 00:45 50.93682 -58.98689 16943 ft 256 kts 78°
2026-05-04 00:45 50.94344 -58.96117 16695 ft 255 kts 78°
2026-05-04 00:46 50.95011 -58.93520 16446 ft 254 kts 78°
2026-05-04 00:46 50.95676 -58.90931 16196 ft 253 kts 78°
2026-05-04 00:46 50.96337 -58.88350 15946 ft 252 kts 77°
2026-05-04 00:46 50.96995 -58.85778 15696 ft 251 kts 77°
2026-05-04 00:47 50.97652 -58.83211 15444 ft 250 kts 77°
2026-05-04 00:47 50.98304 -58.80657 15189 ft 250 kts 77°
2026-05-04 00:47 50.98955 -58.78103 14944 ft 249 kts 77°
2026-05-04 00:47 50.99604 -58.75558 14722 ft 247 kts 76°
2026-05-04 00:48 51.00246 -58.73039 14523 ft 245 kts 76°
2026-05-04 00:48 51.00883 -58.70536 14322 ft 244 kts 76°
2026-05-04 00:48 51.01515 -58.68045 14121 ft 242 kts 76°
2026-05-04 00:48 51.02143 -58.65570 13921 ft 241 kts 76°
2026-05-04 00:49 51.02767 -58.63107 13719 ft 240 kts 76°
2026-05-04 00:49 51.03388 -58.60652 13520 ft 240 kts 76°
2026-05-04 00:49 51.04009 -58.58200 13320 ft 239 kts 75°
2026-05-04 00:49 51.04618 -58.55789 13122 ft 238 kts 75°
2026-05-04 00:50 51.05233 -58.53351 12921 ft 237 kts 75°
2026-05-04 00:50 51.05845 -58.50923 12722 ft 237 kts 75°
2026-05-04 00:50 51.06457 -58.48491 12528 ft 236 kts 75°
2026-05-04 00:50 51.07065 -58.46072 12321 ft 235 kts 75°
2026-05-04 00:51 51.07672 -58.43659 12121 ft 234 kts 74°
2026-05-04 00:51 51.08072 -58.42067 11988 ft 234 kts 74°
2026-05-04 00:51 51.08675 -58.39660 11787 ft 234 kts 74°
2026-05-04 00:51 51.09276 -58.37263 11587 ft 233 kts 74°
2026-05-04 00:52 51.09877 -58.34861 11388 ft 233 kts 74°
2026-05-04 00:52 51.10473 -58.32472 11187 ft 232 kts 73°
2026-05-04 00:52 51.11068 -58.30087 10986 ft 232 kts 73°
2026-05-04 00:52 51.11663 -58.27705 10786 ft 231 kts 73°
2026-05-04 00:53 51.12255 -58.25329 10588 ft 231 kts 73°
2026-05-04 00:53 51.12846 -58.22956 10386 ft 231 kts 73°
2026-05-04 00:53 51.13435 -58.20587 10185 ft 229 kts 73°
2026-05-04 00:53 51.14021 -58.18229 9985 ft 229 kts 73°
2026-05-04 00:54 51.14605 -58.15872 9784 ft 229 kts 72°
2026-05-04 00:54 51.15189 -58.13517 9585 ft 229 kts 72°
2026-05-04 00:54 51.15774 -58.11157 9383 ft 228 kts 72°
2026-05-04 00:54 51.16353 -58.08810 9184 ft 228 kts 72°
2026-05-04 00:55 51.16926 -58.06489 8986 ft 229 kts 72°
2026-05-04 00:55 51.17509 -58.04131 8786 ft 229 kts 72°
2026-05-04 00:55 51.18089 -58.01776 8586 ft 228 kts 72°
2026-05-04 00:55 51.18670 -57.99424 8386 ft 228 kts 72°
2026-05-04 00:56 51.19250 -57.97068 8186 ft 228 kts 72°
2026-05-04 00:56 51.19825 -57.94720 7985 ft 227 kts 72°
2026-05-04 00:56 51.20402 -57.92374 7782 ft 227 kts 71°
2026-05-04 00:56 51.20976 -57.90031 7587 ft 226 kts 72°
2026-05-04 00:57 51.21549 -57.87691 7385 ft 226 kts 72°
2026-05-04 00:57 51.22121 -57.85359 7185 ft 226 kts 71°
2026-05-04 00:57 51.22691 -57.83025 6982 ft 225 kts 72°
2026-05-04 00:57 51.23259 -57.80696 6784 ft 225 kts 71°
2026-05-04 00:58 51.23824 -57.78376 6584 ft 225 kts 71°
2026-05-04 00:58 51.24391 -57.76050 6385 ft 224 kts 71°
2026-05-04 00:58 51.24954 -57.73738 6184 ft 224 kts 71°
2026-05-04 00:58 51.25517 -57.71426 5983 ft 223 kts 71°
2026-05-04 00:59 51.26078 -57.69118 5782 ft 223 kts 71°
2026-05-04 00:59 51.26638 -57.66809 5581 ft 223 kts 71°
2026-05-04 00:59 51.27198 -57.64497 5382 ft 223 kts 71°
2026-05-04 00:59 51.27756 -57.62192 5181 ft 222 kts 71°
2026-05-04 01:00 51.28311 -57.59896 4980 ft 221 kts 71°
2026-05-04 01:00 51.28857 -57.57636 4783 ft 221 kts 71°
2026-05-04 01:00 51.29410 -57.55348 4590 ft 221 kts 71°
2026-05-04 01:00 51.29962 -57.53058 4415 ft 220 kts 71°
2026-05-04 01:01 51.30511 -57.50782 4239 ft 219 kts 71°
2026-05-04 01:01 51.31057 -57.48510 4064 ft 218 kts 70°
2026-05-04 01:01 51.31595 -57.46270 3887 ft 213 kts 70°
2026-05-04 01:01 51.31981 -57.44041 3705 ft 206 kts 87°
2026-05-04 01:02 51.31728 -57.41839 3526 ft 201 kts 112°
2026-05-04 01:02 51.31105 -57.39875 3352 ft 197 kts 117°
2026-05-04 01:02 51.30470 -57.37955 3178 ft 194 kts 116°
2026-05-04 01:02 51.29852 -57.36055 3017 ft 189 kts 116°
2026-05-04 01:03 51.29309 -57.34269 3010 ft 167 kts 109°
2026-05-04 01:03 51.29195 -57.32561 3018 ft 146 kts 81°
2026-05-04 01:03 51.29567 -57.31158 3018 ft 134 kts 56°
2026-05-04 01:03 51.30254 -57.30209 2954 ft 135 kts 31°
2026-05-04 01:04 51.31102 -57.29513 2793 ft 138 kts 30°
2026-05-04 01:04 51.31953 -57.28805 2615 ft 135 kts 31°
2026-05-04 01:04 51.32767 -57.28131 2433 ft 129 kts 30°
2026-05-04 01:04 51.33557 -57.27488 2276 ft 126 kts 30°
2026-05-04 01:05 51.34335 -57.26865 2119 ft 125 kts 30°
2026-05-04 01:05 51.35101 -57.26224 1970 ft 124 kts 31°
2026-05-04 01:05 51.35842 -57.25578 1834 ft 115 kts 31°
2026-05-04 01:05 51.36523 -57.24992 1657 ft 107 kts 31°
2026-05-04 01:06 51.37167 -57.24469 1505 ft 101 kts 31°
2026-05-04 01:06 51.37781 -57.23966 1384 ft 97 kts 30°
2026-05-04 01:06 51.38374 -57.23463 1265 ft 96 kts 32°
2026-05-04 01:06 51.38954 -57.22974 1136 ft 95 kts 31°
2026-05-04 01:07 51.39543 -57.22501 1027 ft 93 kts 30°
2026-05-04 01:07 51.40119 -57.22025 931 ft 92 kts 31°
2026-05-04 01:07 51.40663 -57.21576 819 ft 87 kts 31°
2026-05-04 01:07 51.41195 -57.21119 688 ft 86 kts 31°
2026-05-04 01:08 51.41721 -57.20690 578 ft 84 kts 33°
2026-05-04 01:08 51.42227 -57.20276 503 ft 81 kts 32°
2026-05-04 01:08 51.42734 -57.19852 395 ft 82 kts 29°
2026-05-04 01:08 51.43239 -57.19423 270 ft 83 kts 29°
2026-05-04 01:09 51.43740 -57.19010 140 ft 76 kts 31°
2026-05-04 01:09 51.44144 -57.18661 127 ft 57 kts 27°
2026-05-04 01:09 51.44343 -57.18501 128 ft 14 kts 24°
2026-05-04 01:09 51.44440 -57.18423 128 ft 16 kts 26°
2026-05-04 01:10 51.44538 -57.18342 126 ft 16 kts 28°
2026-05-04 01:10 51.44640 -57.18258 126 ft 16 kts 28°
2026-05-04 01:10 51.44719 -57.18193 127 ft 11 kts 260°
2026-05-04 01:10 51.44638 -57.18261 127 ft 21 kts 203°
2026-05-04 01:11 51.44479 -57.18390 127 ft 26 kts 209°
2026-05-04 01:11 51.44340 -57.18507 126 ft 19 kts 208°
2026-05-04 01:11 51.44307 -57.18557 129 ft 1 kts 312°
2026-05-04 01:11 51.44342 -57.18529 127 ft 12 kts
2026-05-04 01:12 51.44397 -57.18628 127 ft 11 kts 293°
2026-05-04 01:12 51.44391 -57.18734 126 ft 13 kts 195°
2026-05-04 01:12 51.44394 -57.18804 126 ft 7 kts 49°
2026-05-04 01:12 51.44397 -57.18795 127 ft 0 kts 62°